Location: *
(34.6780°N, 135.8310°E)
Time: 15:58:40
(UTC+00:00)

CZ-2C R/B - Pass Details

Date: 18 October 2019
Orbit: 668 x 784 km, 98.1° (Epoch: 17 November)

Event Time Altitude Azimuth Distance (km) Brightness Sun altitude
Rises 19:10:17 0° 14° (NNE) 3,278 6.0 -24.3°
Reaches altitude 10° 19:12:38 10° 16° (NNE) 2,345 5.2 -23.8°
Maximum altitude 19:17:50 75° 102° (ESE) 806 2.6 -22.7°
Drops below altitude 10° 19:22:55 10° 188° (S) 2,295 4.9 -21.7°
Sets 19:25:11 0° 189° (S) 3,203 5.6 -21.2°
